Location: Hilton Head Island
(32.2163°N, 80.7526°W)
Time: 21:29:23
(UTC-04:00)

Vanguard 2 Rocket - Pass Details

Date: 22 February 2026
Orbit: 553 x 3286 km, 32.9° (Epoch: 10 March)

Event Time Altitude Azimuth Distance (km) Brightness Sun altitude
Rises 12:36:34 0° 257° (WSW) 7,158 11.6 47.8°
Reaches altitude 10° 12:41:17 10° 257° (WSW) 6,216 11.4 47.8°
Maximum altitude 13:01:41 89° 172° (S) 2,914 10.4 47.4°
Drops below altitude 10° 13:16:03 10° 83° (E) 4,606 10.4 46.7°
Sets 13:18:58 0° 83° (E) 5,306 10.7 46.6°
